(100376) = 1993 FD73 = 1995 UT73 = 2001 ES20

Discovered at Kitt Peak on 1995-10-20 by Spacewatch.

Orbit

Orbit type: Main Belt

Note: WebGL enabled browser required.

epoch2024-03-31.0
epoch JD2460400.5
perihelion date2021-05-20.20960
perihelion JD2459354.70960
argument of perihelion (°)302.82665
ascending node (°)194.39267
inclination (°)4.81368
eccentricity0.0608124
perihelion distance (AU)2.4057729
Tisserand w.r.t. Jupiter3.4
ΔV w.r.t. Earth (km/sec)9.8
semimajor axis (AU)2.5615467
mean anomaly (°)251.41726
mean daily motion (°/day)0.24040880
aphelion distance (AU)2.717
period (years)4.1
P-vector [x]-0.73322227
P-vector [y]0.64856361
P-vector [z]0.20432899
Q-vector [x]-0.67966905
Q-vector [y]-0.68979013
Q-vector [z]-0.24947857
absolute magnitude15.99
phase slope0.15
uncertainty0
referenceMPEC 2024-E02
observations used650
oppositions18
arc length (days)11218
first opposition used1993
last opposition used2023
residual rms (arc-secs)0.70
perturbers coarse indicatorM-v
perturbers precise indicator003Ek
first observation date used1993-03-21.0
last observation date used2023-12-07.0
computer nameMPCLINUX
JD of orbit computation2456847.770559
perihelion JD uncertainty (days)1.7965E-04
argument of perihelion uncertainty (°)6.6601E-05
ascending node uncertainty (°)5.1426E-05
inclination uncertainty (°)4.8819E-06
eccentricity uncertainty 4.6849E-08
perihelion distance uncertainty (AU)1.1115E-07
Minimum Orbit Intersection Distances (in AU)
for orbit epoch: 2460400.5, reference: E2024-E02
Mercury2.0501
Venus1.69491
Earth1.42325
Mars0.76548
Jupiter2.28903
Saturn6.57604
Uranus16.0164
Neptune27.2038

Observations

656 total observations over interval: 1993 03 21.21493 – 2023 12 07.097583
These data are available for download (format description).

Date (UT) J2000 RA J2000 Dec Magn Location Ref
1993 03 21.21493 12 50 51.63 -06 20 28.5 19.6   809 – European Southern Observatory, La Silla MPC 23630
1993 03 22.20660 12 50 06.01 -06 13 26.5 19.2   809 – European Southern Observatory, La Silla MPC 23630
1995 10 20.44522 03 25 09.78 +14 59 02.8   691 – Steward Observatory, Kitt Peak-Spacewatch MPS 32172
1995 10 20.46877 03 25 08.81 +14 58 55.4 19.7 V 691 – Steward Observatory, Kitt Peak-Spacewatch MPS 32172
1995 10 20.49204 03 25 07.85 +14 58 48.0   691 – Steward Observatory, Kitt Peak-Spacewatch MPS 32172
1995 10 25.31800 03 21 41.77 +14 34 02.1 19.1 V 691 – Steward Observatory, Kitt Peak-Spacewatch MPS 32172
1995 10 25.34080 03 21 40.69 +14 33 54.8 19.0 V 691 – Steward Observatory, Kitt Peak-Spacewatch MPS 32172
1995 10 25.36544 03 21 39.52 +14 33 47.0 19.1 V 691 – Steward Observatory, Kitt Peak-Spacewatch MPS 32172
2001 03 15.26786 10 53 16.44 +03 10 25.9 19.0 R 699 – Lowell Observatory-LONEOS MPS 28182
2001 03 15.28268 10 53 15.73 +03 10 32.9   699 – Lowell Observatory-LONEOS MPS 28182
2001 03 15.29749 10 53 14.94 +03 10 40.1   699 – Lowell Observatory-LONEOS MPS 28182
2001 03 15.31232 10 53 14.22 +03 10 47.0   699 – Lowell Observatory-LONEOS MPS 28182
2001 03 18.25203 10 50 59.93 +03 32 21.8 18.7   704 – Lincoln Laboratory ETS, New Mexico MPS 28182
2001 03 18.27788 10 50 58.81 +03 32 31.8 19.3   704 – Lincoln Laboratory ETS, New Mexico MPS 28182
2001 03 18.29130 10 50 58.19 +03 32 37.0 19.0   704 – Lincoln Laboratory ETS, New Mexico MPS 28182
2001 03 18.30444 10 50 57.59 +03 32 42.9 19.1   704 – Lincoln Laboratory ETS, New Mexico MPS 28182
2003 09 26.29182 01 58 05.10 +11 11 04.1 19.7   704 – Lincoln Laboratory ETS, New Mexico MPS 86845
2003 09 26.30440 01 58 04.68 +11 11 00.0 19.9   704 – Lincoln Laboratory ETS, New Mexico MPS 86845
2003 09 26.31703 01 58 04.20 +11 10 56.4 19.5   704 – Lincoln Laboratory ETS, New Mexico MPS 86845
2003 09 26.32973 01 58 03.71 +11 10 52.4 19.4   704 – Lincoln Laboratory ETS, New Mexico MPS 86845
2003 09 26.34248 01 58 03.29 +11 10 48.8 20.1   704 – Lincoln Laboratory ETS, New Mexico MPS 86845
2003 09 29.43359 01 56 09.73 +10 54 04.9 19.9 V 691 – Steward Observatory, Kitt Peak-Spacewatch MPS 86845
2003 09 29.46172 01 56 08.60 +10 53 55.3 20.0 V 691 – Steward Observatory, Kitt Peak-Spacewatch MPS 86845
2003 09 29.48910 01 56 07.51 +10 53 46.2 19.8 V 691 – Steward Observatory, Kitt Peak-Spacewatch MPS 86845
2003 10 18.36788 01 41 24.88 +08 52 18.6 19.2 V 691 – Steward Observatory, Kitt Peak-Spacewatch MPS 87543
2003 10 18.39602 01 41 23.37 +08 52 06.7 19.3 V 691 – Steward Observatory, Kitt Peak-Spacewatch MPS 87543
2003 10 18.42707 01 41 21.71 +08 51 53.8 19.4 V 691 – Steward Observatory, Kitt Peak-Spacewatch MPS 87543
2003 10 21.22572 01 38 57.12 +08 32 33.1 19.1 R 699 – Lowell Observatory-LONEOS MPS 87543
2003 10 21.24570 01 38 55.99 +08 32 24.3   699 – Lowell Observatory-LONEOS MPS 87543
2003 10 21.26571 01 38 54.98 +08 32 16.6   699 – Lowell Observatory-LONEOS MPS 87543
2003 10 21.28030 01 38 54.24 +08 32 10.4 19.2   644 – Palomar Mountain/NEAT MPS 87543
2003 10 21.28532 01 38 53.96 +08 32 08.9 19.0   704 – Lincoln Laboratory ETS, New Mexico MPS 87543
2003 10 21.28575 01 38 53.92 +08 32 08.0   699 – Lowell Observatory-LONEOS MPS 87543
2003 10 21.29730 01 38 53.42 +08 32 04.2 19.4   704 – Lincoln Laboratory ETS, New Mexico MPS 87543
2003 10 21.30377 01 38 52.99 +08 32 00.9 19.4   644 – Palomar Mountain/NEAT MPS 87543
2003 10 21.30958 01 38 52.69 +08 31 58.0 19.3   704 – Lincoln Laboratory ETS, New Mexico MPS 87543
2003 10 21.32136 01 38 52.01 +08 31 52.4 19.4   704 – Lincoln Laboratory ETS, New Mexico MPS 87543
2003 10 21.33135 01 38 51.51 +08 31 49.1 18.9   644 – Palomar Mountain/NEAT MPS 87543
2003 10 28.21877 01 32 59.79 +07 44 58.2 19.3   704 – Lincoln Laboratory ETS, New Mexico MPS 89196
2003 10 28.23135 01 32 59.15 +07 44 52.6 19.2   704 – Lincoln Laboratory ETS, New Mexico MPS 89196
2003 10 28.24408 01 32 58.44 +07 44 48.6 19.3   704 – Lincoln Laboratory ETS, New Mexico MPS 89196
2003 10 28.25614 01 32 57.83 +07 44 43.3 19.4   704 – Lincoln Laboratory ETS, New Mexico MPS 89196
2003 11 21.19493 01 17 32.39 +05 38 50.9 19.6   704 – Lincoln Laboratory ETS, New Mexico MPS 91627
2003 11 21.20768 01 17 32.00 +05 38 47.8 20.2   704 – Lincoln Laboratory ETS, New Mexico MPS 91627
2003 11 21.22102 01 17 31.73 +05 38 43.8 20.5   704 – Lincoln Laboratory ETS, New Mexico MPS 91627
2003 11 21.23389 01 17 31.40 +05 38 42.2 20.8   704 – Lincoln Laboratory ETS, New Mexico MPS 91627
2003 11 21.24691 01 17 31.15 +05 38 39.6 20.1   704 – Lincoln Laboratory ETS, New Mexico MPS 91627
2005 02 01.30466 10 24 34.27 +03 42 02.7 18.8   644 – Palomar Mountain/NEAT MPS 125522
2005 02 01.36685 10 24 31.66 +03 42 18.4 18.7   644 – Palomar Mountain/NEAT MPS 125522
2005 02 01.42978 10 24 29.01 +03 42 34.2 18.7   644 – Palomar Mountain/NEAT MPS 125522
2005 03 03.25974 10 00 05.40 +06 43 58.4 18.9 R 703 – Catalina Sky Survey MPS 127067
2005 03 03.26829 10 00 05.01 +06 44 02.3 19.0 R 703 – Catalina Sky Survey MPS 127067
2005 03 03.27684 10 00 04.50 +06 44 04.5 19.1 R 703 – Catalina Sky Survey MPS 127067
2005 03 03.28537 10 00 04.13 +06 44 09.2 19.2 R 703 – Catalina Sky Survey MPS 127067
2005 03 13.26962 09 52 59.59 +07 49 57.8 18.8 R G96 – Mt. Lemmon Survey MPS 128847
2005 03 13.27728 09 52 59.29 +07 50 00.9 18.8 R G96 – Mt. Lemmon Survey MPS 128847
2005 03 13.28493 09 52 58.99 +07 50 03.8 18.5 R G96 – Mt. Lemmon Survey MPS 128847
2005 03 13.29257 09 52 58.71 +07 50 06.6 18.5 R G96 – Mt. Lemmon Survey MPS 128847
2005 03 17.28273 09 50 44.20 +08 14 05.9 19.0 R 703 – Catalina Sky Survey MPS 128847
2005 03 17.29075 09 50 43.91 +08 14 09.1 19.1 R 703 – Catalina Sky Survey MPS 128847
2005 03 17.29877 09 50 43.60 +08 14 11.4 18.9 R 703 – Catalina Sky Survey MPS 128847
2005 03 17.30678 09 50 43.44 +08 14 14.7 18.9 R 703 – Catalina Sky Survey MPS 128847
2005 03 30.20493 09 46 20.79 +09 17 55.8 19.2   644 – Palomar Mountain/NEAT MPS 132479
2005 03 30.22424 09 46 20.54 +09 18 00.5 19.7   644 – Palomar Mountain/NEAT MPS 132479
2005 03 30.24498 09 46 20.34 +09 18 05.4 19.7   644 – Palomar Mountain/NEAT MPS 132479
2007 09 13.40859 01 16 32.91 +08 44 46.9 19.7 V 691 – Steward Observatory, Kitt Peak-Spacewatch MPS 215772
2007 09 13.42635 01 16 32.30 +08 44 42.1 20.8 V 691 – Steward Observatory, Kitt Peak-Spacewatch MPS 215772
2007 09 13.42670 01 16 32.34 +08 44 41.6 19.7 V G96 – Mt. Lemmon Survey MPS 215772
2007 09 13.43274 01 16 32.12 +08 44 39.5 19.6 V G96 – Mt. Lemmon Survey MPS 215772
2007 09 13.43868 01 16 31.90 +08 44 38.2 19.6 V G96 – Mt. Lemmon Survey MPS 215772
2007 09 13.44404 01 16 31.73 +08 44 36.6 19.6 V 691 – Steward Observatory, Kitt Peak-Spacewatch MPS 215772
2007 09 13.44465 01 16 31.72 +08 44 36.4 19.7 V G96 – Mt. Lemmon Survey MPS 215772
2007 09 22.30377 01 11 03.82 +07 55 48.8 19.1   704 – Lincoln Laboratory ETS, New Mexico MPS 218003
2007 09 22.31598 01 11 03.33 +07 55 44.1 19.7   704 – Lincoln Laboratory ETS, New Mexico MPS 218003
2007 09 22.32806 01 11 02.83 +07 55 41.5 19.8   704 – Lincoln Laboratory ETS, New Mexico MPS 218003
2007 09 22.34014 01 11 02.38 +07 55 36.6 19.9   704 – Lincoln Laboratory ETS, New Mexico MPS 218003
2007 10 04.32057 01 01 47.13 +06 35 50.6 19.1 V 703 – Catalina Sky Survey MPS 218336
2007 10 04.32817 01 01 46.66 +06 35 47.2 18.9 V 703 – Catalina Sky Survey MPS 218336
2007 10 04.33582 01 01 46.34 +06 35 44.5 19.4 V 703 – Catalina Sky Survey MPS 218336
2007 10 04.34340 01 01 45.94 +06 35 40.7 19.1 V 703 – Catalina Sky Survey MPS 218336
2007 10 06.20884 01 00 13.13 +06 22 24.2 19.1   704 – Lincoln Laboratory ETS, New Mexico MPS 219837
2007 10 06.21968 01 00 12.57 +06 22 18.6 19.6   704 – Lincoln Laboratory ETS, New Mexico MPS 219837
2007 10 06.23061 01 00 12.03 +06 22 13.1 19.9   704 – Lincoln Laboratory ETS, New Mexico MPS 219837
2007 10 06.24145 01 00 11.44 +06 22 09.3 19.7   704 – Lincoln Laboratory ETS, New Mexico MPS 219837
2007 10 06.25234 01 00 10.81 +06 22 04.9 19.9   704 – Lincoln Laboratory ETS, New Mexico MPS 219837
2007 10 08.29580 00 58 27.98 +06 07 22.8 19.4 V G96 – Mt. Lemmon Survey MPS 219837
